カタログに戻る

SHCHUKIN A.V.

運用中ナビゲーションSSO
NORAD 57201·PAYLOAD·🇷🇺 Russia
この衛星名は、まだ公式ソースで確認されていません。

打ち上げ Jun 27, 2023 から Vostochny Cosmodrome

Loading…

次のパス (今後24時間)

TLE

最新Source: Space-Track

元期: Sep 14, 2026, 12:13 UTC

1 57201U 23091AM  26257.50924448  .00017179  00000-0  41583-3 0  9997
2 57201  97.4994 330.0073 0007529 110.3964 249.8091 15.41153647178491

AllMySatでSHCHUKIN A.V.をリアルタイム追跡

Download on the App Store